Location: Dittelspoint
(48.7198°N, 10.7214°E)
Time: 13:42:09
(UTC+00:00)

FALCON 9 DEB - Pass Details

Date: 09 April 2020
Orbit: 429 x 441 km, 53.0° (Epoch: 23 May)

Event Time Altitude Azimuth Distance (km) Brightness Sun altitude
Rises 19:26:56 0° 239° (WSW) 2,424 7.3 -14.1°
Reaches altitude 10° 19:29:03 10° 238° (WSW) 1,557 6.3 -14.4°
Maximum altitude 19:32:33 78° 152° (SSE) 457 3.0 -14.9°
Enters shadow 19:35:01 18° 68° (ENE) 1,151 4.9 -15.2°
